This demonstration page uses our WeatherBlox Daily Observations layout. Learn more.

Left ArrowRight Arrow

Hourly Observations for January 26, 2017

Temp ( °F °C ) Dew Point ( °F °C ) Humidity (%) Winds ( mph kmh ) Pressure ( in mb ) Visibility ( mi km ) Precip ( " mm )
12:59 am 00:59 Partly Cloudy 59 15 41 5 51 51 SSW 12 19 29.64 1004 10 16 0.00 0.00
1:59 am 01:59 Partly Cloudy 60 15.6 41 5 50 50 SSW 14 22 29.62 1003 10 16 0.00 0.00
2:59 am 02:59 Mostly Cloudy 59 15 41 5 51 51 SW 10 17 29.62 1003 10 16 0.00 0.00
3:59 am 03:59 Partly Cloudy 58 14.4 41 5 53 53 SSW 10 17 29.60 1002 10 16 0.00 0.00
4:59 am 04:59 Cloudy 58 14.4 41 5 53 53 SSW 9 15 29.58 1002 10 16 0.00 0.00
5:59 am 05:59 Mostly Cloudy 58 14.4 42 5.6 56 56 SSW 10 17 29.57 1002 10 16 0.00 0.00
6:59 am 06:59 Cloudy 60 15.6 44 6.7 56 56 SW 12 19 29.58 1002 10 16 0.00 0.00
7:59 am 07:59 Cloudy with Light Rain 56 13.3 50 10 81 81 SSW 8 13 29.56 1001 7 11 0.04 1.02
8:59 am 08:59 Mostly Cloudy 56 13.3 51 10.6 84 84 SSW 7 11 29.55 1001 10 16 0.04 1.02
9:59 am 09:59 Mostly Cloudy 59 15 52 11.1 78 78 SW 13 20 29.56 1001 10 16 0.00 0.00
10:59 am 10:59 Mostly Cloudy 63 17.2 54 12.2 73 73 SW 18 30 29.55 1001 10 16 0.00 0.00
11:59 am 11:59 Partly Cloudy 65 18.3 54 12.2 68 68 WSW 16 26 29.52 1000 10 16 0.00 0.00
12:59 pm 12:59 Mostly Cloudy 66 18.9 53 11.7 63 63 WSW 15 24 29.50 999 10 16 0.00 0.00
1:59 pm 13:59 Partly Cloudy 68 20 51 10.6 55 55 W 16 26 29.48 998 10 16 0.00 0.00
2:59 pm 14:59 Mostly Sunny 67 19.4 41 5 39 39 WNW 21 33 29.52 1000 10 16 0.00 0.00
3:59 pm 15:59 Mostly Sunny 64 17.8 30 -1.1 28 28 WNW 24 39 29.57 1002 10 16 0.00 0.00
4:59 pm 16:59 Mostly Sunny 60 15.6 28 -2.2 30 30 WNW 25 41 29.63 1004 10 16 0.00 0.00
5:59 pm 17:59 Mostly Clear 56 13.3 28 -2.2 34 34 W 17 28 29.69 1005 10 16 0.00 0.00
6:59 pm 18:59 Mostly Clear 53 11.7 27 -2.8 37 37 WNW 22 35 29.74 1007 10 16 0.00 0.00
7:59 pm 19:59 Clear 51 10.6 27 -2.8 39 39 WNW 17 28 29.78 1009 10 16 0.00 0.00
8:59 pm 20:59 Clear 49 9.4 26 -3.3 41 41 WNW 21 33 29.82 1010 10 16 0.00 0.00
9:59 pm 21:59 Clear 48 8.9 26 -3.3 42 42 WNW 20 31 29.85 1011 10 16 0.00 0.00
10:59 pm 22:59 Clear 46 7.8 27 -2.8 47 47 W 15 24 29.87 1012 10 16 0.00 0.00
11:59 pm 23:59 Clear 45 7.2 26 -3.3 48 48 W 14 22 29.88 1012 10 16 0.00 0.00

Powered by AerisWeather